Huvudsida
METAR-TAF:

METAR-TAF

Flygplatser :

Enontekis flygplats

Enontekis, Finland

latitud: 68-21-52N, longitud: 023-25-39E, höjd: 308 m

Aktuellt väderrapport

Denna rapport gjordes för 26 minuter sedan, klockan 12:50 UTC
Vind 8 kt från syd, varierande mellan sydost och sydväst
Temperatur 16°C
Fuktighet 68%
Tryck 1006 hPa
Sikt 10 km eller mer
Brutna moln på en höjd av 2900 ft
Brutna moln på en höjd av 13600 ft

METAR: EFET 171250Z AUTO 18008KT 130V220 9999 BKN029 BKN136 16/10 Q1006

Tid: 16:16 (13:16 UTC)


TAF: saknas

Aktuella väderrapporter och prognoser från 4000 flygplatser (METAR- och TAF-rapporter).

De tillgängliga stationerna syns som gula och röda prickar på kartan.

För musen över prickarna för att se namnen på stationerna.

Klicka sedan för att få väderrapporter och prognoser.

För att ändra kartan: Klicka på de gröna knapparna med ett svart kors på för att zooma in; den gröna knappen med ett streck på för att zooma ut; eller på de gröna pilarna för angränsande kartor.


METAR-TAF: